Location: Newark
(34.0111°N, 88.4892°W)
Time: 02:35:48
(UTC+00:00)

LightSail 2 - Visible Passes

Search period start: 27 February 2020 00:00
Search period end: 08 March 2020 00:00
Orbit: 698 x 724 km, 24.0° (Epoch: 26 February)

Date Brightness Start Highest point End Pass type
(mag) Time Alt. Az. Time Alt. Az. Time Alt. Az.
04 Mar 7.3 01:36:12 10° S 01:37:32 12° S 01:37:32 12° S visible
05 Mar 7.6 02:20:48 10° SW 02:21:24 12° SSW 02:21:24 12° SSW visible
06 Mar 6.8 01:22:28 10° SSW 01:25:50 18° SSE 01:26:19 18° SSE visible
07 Mar 7.2 00:24:21 10° SSW 00:27:07 15° SSE 00:29:52 10° SE visible
07 Mar 7.0 02:07:53 10° SW 02:10:06 20° SSW 02:10:06 20° SSW visible
